Date,TemperatureHighF,TemperatureAvgF,TemperatureLowF,DewpointHighF,DewpointAvgF,DewpointLowF,HumidityHigh,HumidityAvg,HumidityLow,PressureMaxIn,PressureMinIn,WindSpeedMaxMPH,WindSpeedAvgMPH,GustSpeedMaxMPH,PrecipitationSumIn
2013-1-1,23,14,0,5,-4,-8,80,50,28,30.47,30.25,26,10,26,0.00
2013-1-2,25,16,4,-3,-6,-10,53,36,24,30.54,30.27,24,8,24,0.00
2013-1-3,39,13,-8,-1,-8,-15,73,45,11,30.79,30.35,17,3,17,0.00
2013-1-4,45,19,2,11,2,-6,75,52,22,30.64,30.17,8,2,8,0.00
2013-1-5,42,20,0,10,-2,-12,74,42,16,30.58,30.17,24,6,24,0.00
2013-1-6,50,28,-1,1,-7,-13,58,28,8,30.52,29.78,28,7,28,0.00
2013-1-7,47,38,28,0,-7,-15,27,14,8,30.08,29.71,34,12,34,0.00
2013-1-8,36,33,30,14,10,-8,46,38,16,30.22,29.67,39,20,39,0.00
2013-1-9,54,39,24,13,8,0,44,29,12,30.35,29.96,24,7,24,0.00
2013-1-10,48,30,15,12,4,-6,59,37,11,30.06,29.46,27,7,27,0.00
2013-1-11,31,19,10,20,1,-14,77,46,26,29.89,29.23,43,17,43,0.00
2013-1-12,17,7,-3,-1,-11,-17,75,47,23,30.35,29.90,29,9,29,0.00
2013-1-13,11,-1,-10,-2,-9,-17,73,68,53,30.56,30.28,13,3,13,0.00
2013-1-14,16,-1,-14,-3,-14,-21,73,57,26,30.67,30.29,22,5,22,0.00
2013-1-15,32,20,3,14,-1,-22,50,38,23,30.51,30.15,24,9,24,0.00
2013-1-16,50,32,16,15,12,8,74,46,24,30.46,30.06,24,8,24,0.00
2013-1-17,51,28,6,13,6,-2,83,48,16,30.74,30.12,32,5,32,0.00
2013-1-18,45,38,33,3,1,-1,25,21,16,30.24,30.01,40,21,40,0.00
2013-1-19,48,39,32,1,-3,-9,24,17,10,30.22,29.99,31,15,31,0.00
2013-1-20,43,34,18,8,0,-7,60,26,14,30.35,30.02,34,12,34,0.00
2013-1-21,43,36,31,7,1,-9,29,22,12,30.26,30.00,39,21,39,0.00
2013-1-22,51,43,37,-7,-12,-18,14,9,6,30.10,29.93,46,24,46,0.00
2013-1-23,57,47,42,-2,-9,-20,14,9,6,30.07,29.91,36,16,36,0.00
2013-1-24,50,43,34,24,8,-8,51,26,11,30.00,29.84,43,22,43,0.00
2013-1-25,50,42,38,25,22,18,52,44,32,30.07,29.88,34,16,34,0.00
2013-1-26,52,41,30,29,22,14,89,49,24,29.90,29.64,31,9,31,0.00
2013-1-27,48,37,27,28,20,13,91,56,27,29.77,29.59,33,11,33,0.01
2013-1-28,45,31,19,26,16,11,85,55,27,29.70,29.49,33,9,33,0.00
2013-1-29,24,16,5,15,-3,-9,85,44,26,30.20,29.67,30,10,30,0.00
2013-1-30,28,22,10,12,3,-10,56,43,31,30.10,29.88,41,20,41,0.00
2013-1-31,35,30,27,16,11,7,63,45,31,30.17,29.89,43,22,43,0.00
2013-2-1,38,32,29,17,11,7,50,41,30,30.13,30.00,40,19,40,0.00
2013-2-2,47,36,26,9,4,-1,41,26,15,30.32,30.12,34,16,34,0.00
2013-2-3,49,38,24,4,-6,-15,39,16,7,30.23,29.80,31,13,31,0.00
2013-2-4,45,35,30,10,3,-2,36,26,15,29.96,29.76,34,18,34,0.00
2013-2-5,50,40,33,18,13,7,45,34,26,30.00,29.72,34,14,34,0.00
2013-2-6,45,37,26,27,17,8,82,46,32,30.05,29.65,21,8,21,0.00
2013-2-7,43,26,10,14,1,-18,81,40,7,30.35,30.03,22,6,22,0.00
2013-2-8,46,24,6,5,-4,-10,57,32,12,30.27,29.71,16,4,16,0.00
2013-2-9,35,21,10,22,10,-4,85,63,38,29.90,29.52,22,4,22,0.01
2013-2-10,28,21,13,12,5,-2,74,51,31,30.14,29.60,25,7,25,0.00
2013-2-11,25,13,4,14,6,-2,82,75,49,30.38,30.10,14,4,14,0.01
2013-2-12,38,24,15,5,-3,-16,48,31,18,30.33,30.01,28,13,28,0.00
2013-2-13,35,28,22,11,6,2,43,38,32,30.13,29.94,39,22,39,0.00
2013-2-14,36,23,11,17,9,4,79,57,27,30.40,29.99,28,8,28,0.00
2013-2-15,31,22,6,12,4,-1,81,51,27,30.52,30.21,34,11,34,0.00
2013-2-16,46,36,27,9,6,0,44,29,18,30.25,29.89,46,24,46,0.00
2013-2-17,49,37,24,10,0,-10,42,22,11,29.88,29.48,36,16,36,0.00
2013-2-18,30,23,12,2,-4,-11,47,31,20,30.20,29.67,30,12,30,0.00
2013-2-19,44,21,9,-3,-11,-24,52,29,8,30.22,29.93,13,5,13,0.00
2013-2-20,39,26,17,17,12,6,86,61,27,29.85,29.67,16,7,16,0.00
2013-2-21,24,16,7,16,11,2,84,80,70,30.07,29.68,13,4,13,0.06
2013-2-22,30,22,6,16,4,-6,85,48,27,30.10,29.90,32,12,32,0.01
2013-2-23,37,26,19,18,7,-5,85,46,33,29.94,29.59,44,19,44,0.00
2013-2-24,23,18,2,18,11,-4,86,76,51,30.37,29.70,20,5,20,0.01
2013-2-25,38,18,-7,16,3,-13,80,55,22,30.47,29.76,20,4,20,0.03
2013-2-26,31,24,16,20,8,2,83,52,33,30.25,29.71,28,9,28,0.03
2013-2-27,31,23,12,2,-4,-12,52,30,17,30.49,30.25,28,12,28,0.00
2013-2-28,34,26,12,8,0,-7,47,33,24,30.40,30.19,37,18,37,0.00
2013-3-1,44,35,24,18,10,-3,47,35,25,30.39,30.17,29,15,29,0.00
2013-3-2,50,41,35,19,17,12,51,39,27,30.30,29.90,37,19,37,0.00
2013-3-3,51,42,32,29,18,11,86,40,24,29.90,29.47,43,19,43,0.00
2013-3-4,36,25,19,29,13,-6,90,61,32,30.31,29.59,36,12,36,0.03
2013-3-5,48,31,18,10,-2,-13,51,27,10,30.34,30.06,28,12,28,0.01
2013-3-6,54,42,18,10,5,-6,46,23,13,30.15,29.61,36,14,36,0.00
2013-3-7,56,44,24,19,11,2,65,29,11,29.94,29.60,34,11,34,0.00
2013-3-8,48,31,20,25,17,10,88,59,27,30.01,29.63,17,4,17,0.00
2013-3-9,29,26,20,26,19,4,90,76,46,30.18,29.57,34,7,34,0.10
2013-3-10,45,30,12,19,6,-2,63,39,23,30.30,30.01,28,9,28,0.01
2013-3-11,43,33,23,23,15,9,88,49,28,30.13,29.79,44,20,44,0.00
2013-3-12,44,31,20,29,20,16,88,66,32,30.36,30.10,32,11,32,0.04
2013-3-13,56,45,38,20,18,11,46,34,17,30.19,30.02,37,18,37,0.00
2013-3-14,60,50,42,18,13,7,33,23,15,30.15,29.92,30,13,30,0.00
2013-3-15,63,54,47,24,16,10,40,22,15,29.91,29.61,44,17,44,0.00
2013-3-16,51,41,31,28,22,13,72,48,27,29.87,29.60,30,9,30,0.00
2013-3-17,45,34,23,28,17,-4,87,52,23,29.81,29.43,33,11,33,0.00
2013-3-18,36,28,21,18,2,-11,64,32,22,29.99,29.79,37,19,37,0.00
2013-3-19,41,32,17,9,-10,-23,68,19,6,30.38,29.89,39,17,39,0.00
2013-3-20,52,34,9,23,9,-8,77,42,16,30.37,29.57,38,13,38,0.00
2013-3-21,46,36,27,28,12,-8,74,39,17,29.74,29.39,38,15,38,0.00
2013-3-22,38,26,18,21,8,-3,87,52,18,29.94,29.66,31,12,31,0.00
2013-3-23,18,12,-1,14,7,-6,85,81,75,30.51,29.90,14,5,14,0.00
2013-3-24,23,9,-8,7,-2,-14,80,62,31,30.52,30.36,29,5,29,0.04
2013-3-25,30,21,7,11,4,-7,76,50,24,30.56,30.34,17,5,17,0.06
2013-3-26,46,30,5,24,14,-1,77,51,32,30.39,29.91,28,10,28,0.00
2013-3-27,50,37,26,28,23,15,86,61,26,30.08,29.91,22,5,22,0.00
2013-3-28,56,38,21,28,22,15,88,58,20,30.19,29.99,16,4,16,0.00
2013-3-29,56,41,26,31,24,14,86,55,21,30.12,29.93,31,10,31,0.00
2013-3-30,55,43,31,31,23,15,83,48,22,30.11,29.87,35,10,35,0.00
2013-3-31,59,42,22,26,12,-6,89,39,7,30.17,29.81,36,12,36,0.00
2013-4-1,49,34,21,33,24,16,91,68,40,30.14,29.94,17,4,17,0.02
2013-4-2,37,32,30,34,30,28,92,91,86,30.14,29.95,13,3,13,0.15
2013-4-3,58,38,19,34,24,12,92,65,18,30.26,29.95,31,5,31,0.15
2013-4-4,59,48,36,28,22,16,62,39,21,30.07,29.84,28,10,28,0.00
2013-4-5,59,45,35,33,23,17,78,43,23,29.86,29.58,33,11,33,0.01
2013-4-6,55,44,37,28,18,12,63,37,21,29.87,29.67,27,11,27,0.00
2013-4-7,50,41,33,34,25,16,88,55,31,29.75,29.57,34,12,34,0.03
2013-4-8,56,39,27,32,25,18,92,61,24,29.69,29.31,21,6,21,0.01
2013-4-9,27,14,6,24,9,0,90,79,71,30.40,29.56,16,3,16,0.01
2013-4-10,29,15,-2,18,6,-8,80,68,35,30.44,29.89,27,7,27,0.10
2013-4-11,48,38,29,26,18,10,69,46,34,29.89,29.66,34,13,34,0.02
2013-4-12,49,36,26,29,22,8,86,63,21,29.96,29.77,30,8,30,0.00
2013-4-13,54,39,22,33,21,11,90,56,20,29.86,29.33,46,15,46,0.08
2013-4-14,35,30,25,30,8,-4,89,44,22,29.82,29.33,38,14,38,0.05
2013-4-15,28,22,16,23,18,10,88,83,46,30.17,29.74,20,3,20,0.06
2013-4-16,27,22,16,22,18,12,88,86,83,30.17,29.95,12,4,12,0.06
2013-4-17,24,18,8,20,14,2,88,84,80,30.31,30.01,18,6,18,0.00
2013-4-18,27,14,-5,9,1,-11,80,58,33,30.48,30.27,33,12,33,0.01
2013-4-19,39,31,22,20,14,5,54,47,39,30.27,29.92,34,16,34,0.10
2013-4-20,43,37,29,29,23,18,83,58,40,30.00,29.83,21,8,21,0.02
2013-4-21,46,38,28,29,20,16,84,50,33,30.07,29.91,28,11,28,0.00
2013-4-22,43,27,15,33,22,11,90,81,41,30.34,29.80,21,6,21,0.05
2013-4-23,29,20,12,21,13,6,84,74,48,30.44,30.22,17,4,17,0.28
2013-4-24,43,31,18,12,8,3,66,39,22,30.30,30.16,26,9,26,0.00
2013-4-25,58,42,23,24,12,0,71,32,16,30.23,29.75,28,9,28,0.00
2013-4-26,57,42,25,24,19,12,78,45,18,30.15,29.94,21,4,21,0.00
2013-4-27,63,46,27,26,17,9,73,37,14,30.18,29.89,25,8,25,0.00
2013-4-28,67,56,38,33,24,17,55,32,16,29.93,29.58,30,10,30,0.00
2013-4-29,68,56,39,33,22,14,68,30,14,29.72,29.32,39,13,39,0.00
2013-4-30,57,46,33,37,30,18,93,57,22,29.88,29.26,38,10,38,0.15
2013-5-1,33,32,31,31,30,29,93,93,92,30.01,29.87,0,0,0,0.01
2013-5-5,38,38,37,35,34,33,88,85,83,30.07,30.05,6,2,6,0.12
2013-5-6,58,45,30,37,31,26,92,62,34,30.13,29.74,18,4,18,0.00
2013-5-7,62,48,33,36,29,23,80,50,25,29.84,29.68,28,9,28,0.00
2013-5-8,58,42,32,38,33,26,88,74,32,30.08,29.76,26,5,26,0.32
2013-5-9,47,39,33,44,34,30,93,85,61,30.24,29.75,29,3,29,0.28
2013-5-10,62,44,29,36,30,19,92,62,23,30.27,30.08,32,6,32,0.01
2013-5-11,61,46,31,39,31,22,89,60,23,30.34,30.04,26,6,26,0.00
2013-5-12,71,57,41,34,28,21,69,35,17,30.12,29.84,31,8,31,0.01
2013-5-13,76,63,47,38,31,25,58,32,16,29.95,29.73,20,7,20,0.00
2013-5-14,74,60,43,48,33,26,69,38,19,29.84,29.62,24,8,24,0.04
2013-5-15,72,55,43,42,36,28,80,51,22,29.81,29.62,22,5,22,0.00
2013-5-16,70,58,43,40,33,21,84,42,17,29.77,29.51,32,9,32,0.00
2013-5-17,74,58,38,39,26,14,77,36,12,29.75,29.50,26,7,26,0.00
2013-5-18,63,51,38,41,26,15,82,39,19,29.84,29.50,29,10,29,0.06
2013-5-19,58,50,44,28,25,20,51,39,25,29.71,29.55,29,16,29,0.00
2013-5-20,56,47,40,36,28,21,78,48,32,29.86,29.60,24,10,24,0.00
2013-5-21,61,48,36,29,22,16,60,37,22,29.93,29.70,26,9,26,0.00
2013-5-22,65,50,32,43,31,21,88,52,22,29.86,29.67,18,6,18,0.10
2013-5-23,58,50,44,45,43,41,91,77,61,29.89,29.77,13,5,13,0.00
2013-5-24,74,57,37,43,31,16,91,46,12,29.87,29.64,25,6,25,0.00
2013-5-25,75,58,35,35,23,9,80,33,8,29.86,29.59,25,7,25,0.00
2013-5-26,74,57,43,32,25,12,48,31,10,29.74,29.58,22,5,22,0.00
2013-5-27,71,60,43,30,19,8,57,23,12,29.63,29.42,27,8,27,0.00
2013-5-28,68,54,34,38,27,16,72,39,15,29.68,29.31,26,6,26,0.00
2013-5-29,58,47,40,40,31,23,88,55,28,29.60,29.24,36,12,36,0.19
2013-5-30,56,48,42,30,23,14,55,38,22,29.65,29.42,50,20,50,0.00
2013-5-31,59,50,40,26,17,11,47,27,18,29.84,29.50,40,15,40,0.00
2013-6-1,59,50,44,36,29,14,64,44,23,30.08,29.82,26,7,26,0.00
2013-6-2,74,55,28,36,29,14,86,43,17,30.11,29.40,21,4,21,0.00
2013-6-3,76,58,36,36,26,12,65,34,13,29.89,29.35,44,8,44,0.00
2013-6-4,67,52,34,45,34,10,75,51,17,29.97,29.60,21,7,21,0.00
2013-6-5,59,48,40,42,39,36,91,72,48,30.06,29.88,20,6,20,0.01
2013-6-6,69,52,33,41,34,27,92,58,24,30.03,29.83,24,5,24,0.01
2013-6-7,72,56,37,42,36,26,88,52,22,29.96,29.48,28,5,28,0.00
2013-6-8,73,62,46,46,34,24,68,38,16,29.83,29.37,36,9,36,0.00
2013-6-9,84,65,36,41,31,23,87,38,13,29.92,29.42,24,5,24,0.00
2013-6-10,86,71,48,45,30,8,53,25,11,29.86,29.35,29,4,29,0.00
2013-6-11,82,69,45,35,22,12,56,21,8,29.91,29.32,38,12,38,0.00
2013-6-12,83,68,46,47,27,15,61,23,10,29.86,29.54,26,7,26,0.00
2013-6-13,84,65,46,47,38,22,83,45,11,29.82,29.52,34,7,34,0.00
2013-6-14,82,64,45,43,32,11,70,39,8,29.74,29.53,30,9,30,0.00
2013-6-15,75,59,42,45,42,35,85,55,32,29.83,29.63,22,5,22,0.00
2013-6-16,75,58,42,45,36,20,85,50,14,30.03,29.72,37,8,37,0.03
2013-6-17,71,57,40,51,40,30,85,54,29,30.04,29.78,21,6,21,0.03
2013-6-18,77,59,41,53,40,26,92,55,17,29.94,29.54,22,5,22,0.02
2013-6-19,83,65,41,44,25,4,91,36,6,29.75,29.33,32,8,32,0.00
2013-6-20,78,62,41,33,23,12,50,24,14,29.66,29.45,21,6,21,0.00
2013-6-21,84,64,40,42,24,10,72,30,7,29.70,29.45,31,10,31,0.00
2013-6-22,78,62,42,44,31,16,78,37,10,29.67,29.50,30,6,30,0.00
2013-6-23,73,59,38,45,34,22,65,41,28,29.78,29.54,20,5,20,0.00
2013-6-24,78,61,40,42,27,11,85,36,8,29.72,29.42,29,8,29,0.00
2013-6-25,78,68,54,34,28,20,45,23,17,29.73,29.42,30,10,30,0.00
2013-6-26,83,62,41,40,33,28,78,39,15,29.87,29.65,20,4,20,0.00
2013-6-27,89,71,48,41,33,20,57,29,9,29.90,29.72,20,6,20,0.00
2013-6-28,88,69,48,51,43,26,73,43,12,29.92,29.69,28,7,28,0.00
2013-6-29,78,62,47,56,47,39,86,60,27,29.94,29.73,26,4,26,0.03
2013-6-30,70,60,52,55,50,47,86,73,51,29.97,29.78,20,4,20,0.13
2013-7-1,70,58,42,52,47,40,93,70,43,30.07,29.90,18,5,18,0.25
2013-7-2,75,60,44,53,45,37,95,64,30,30.07,29.82,22,6,22,0.01
2013-7-3,78,59,42,51,43,32,92,62,24,29.91,29.67,27,4,27,0.29
2013-7-4,79,65,50,50,43,35,81,49,23,29.82,29.54,18,5,18,0.00
2013-7-5,79,64,50,56,47,40,77,56,27,29.66,29.49,24,6,24,0.01
2013-7-6,79,64,52,54,47,39,84,59,25,29.71,29.56,29,8,29,0.08
2013-7-7,80,65,49,58,47,36,92,57,23,29.83,29.62,33,7,33,0.14
2013-7-8,81,69,55,47,40,32,67,36,19,29.86,29.64,36,10,36,0.00
2013-7-9,84,69,50,49,36,24,67,35,12,29.95,29.72,31,6,31,0.00
2013-7-10,82,66,46,56,44,38,76,49,26,29.95,29.64,21,5,21,0.00
2013-7-11,88,71,48,49,42,34,83,42,17,29.82,29.42,20,6,20,0.00
2013-7-12,80,69,60,57,47,40,84,48,27,29.72,29.45,21,7,21,0.06
2013-7-13,81,65,53,55,50,42,92,63,27,29.91,29.64,20,4,20,0.03
2013-7-14,72,59,48,56,53,45,94,80,47,30.11,29.75,18,3,18,0.06
2013-7-15,72,63,62,60,55,52,81,76,57,29.93,29.63,16,2,16,0.00
2013-7-16,72,65,45,53,48,37,92,56,41,30.10,29.68,14,2,14,0.00
2013-7-17,79,67,45,54,48,42,92,53,34,30.18,29.59,18,4,18,0.00
2013-7-18,81,62,54,60,51,42,92,71,27,29.97,29.58,22,4,22,0.39
2013-7-19,73,62,51,56,53,47,93,75,44,29.99,29.65,17,4,17,0.00
2013-7-20,82,62,45,57,47,38,89,61,23,30.02,29.47,27,4,27,0.02
2013-7-21,85,65,44,50,41,21,93,52,11,29.76,29.51,24,6,24,0.00
2013-7-22,54,49,46,42,36,33,68,62,58,29.73,29.58,6,1,6,0.00
2013-7-23,86,71,47,52,42,13,70,40,9,29.82,29.68,20,6,20,0.00
2013-7-24,78,64,52,58,51,43,92,65,41,29.87,29.56,34,6,34,0.08
2013-7-25,75,60,53,54,48,41,89,68,32,30.01,29.77,25,5,25,0.05
2013-7-26,76,63,50,58,46,39,76,56,28,30.03,29.67,24,4,24,0.02
2013-7-27,78,58,43,58,47,35,92,70,22,29.92,29.65,24,6,24,0.14
2013-7-28,72,58,53,56,53,40,94,83,41,29.74,29.58,20,3,20,0.05
2013-7-29,72,60,52,54,47,40,90,63,35,30.01,29.49,17,4,17,0.12
2013-7-30,81,64,49,53,44,37,93,54,23,30.10,29.71,26,7,26,0.02
2013-7-31,77,62,48,46,41,33,79,52,22,30.08,29.88,28,2,28,0.00
2013-8-1,77,60,45,52,44,19,90,63,26,30.14,29.62,22,3,22,0.12
2013-8-2,82,72,64,46,41,36,44,33,21,29.68,29.56,30,10,30,0.00
2013-8-3,78,68,54,58,45,30,79,47,22,30.02,29.54,30,4,30,0.04
2013-8-4,72,64,48,51,46,40,90,54,36,30.07,29.70,14,1,14,0.07
2013-8-5,74,65,53,55,42,36,66,44,33,29.96,29.70,20,6,20,0.00
2013-8-6,80,67,52,41,36,25,54,33,16,29.75,29.60,29,10,29,0.00
2013-8-7,70,57,46,48,41,34,81,56,31,29.88,29.72,21,4,21,0.00
2013-8-8,72,55,40,54,43,36,86,66,38,29.98,29.81,21,4,21,0.01
2013-8-9,68,53,41,49,43,36,91,71,33,30.14,29.86,21,4,21,0.17
2013-8-10,75,60,40,50,36,30,94,50,23,30.17,29.68,20,2,20,0.00
2013-8-11,69,56,48,51,47,30,91,71,23,30.11,29.70,14,1,14,0.20
2013-8-12,65,51,41,52,44,38,92,77,52,30.21,29.88,25,3,25,0.08
2013-8-13,60,53,42,52,45,39,93,75,50,30.17,29.96,18,4,18,0.09
2013-8-14,73,57,39,51,41,31,92,60,28,30.25,29.88,26,2,26,0.05
2013-8-15,80,62,40,50,34,16,83,44,15,30.21,29.72,21,2,21,0.00
2013-8-16,77,54,41,66,40,32,85,63,20,30.25,29.89,7,1,7,0.00
2013-8-17,76,56,43,61,40,26,79,59,16,30.16,29.67,30,1,30,0.00
2013-8-18,84,67,50,41,35,29,53,33,15,30.01,29.68,28,7,28,0.00
2013-8-19,86,68,48,47,37,26,69,38,12,29.90,29.64,17,4,17,0.00
2013-8-20,87,67,46,44,36,25,73,37,13,29.82,29.62,34,4,34,0.00
2013-8-21,79,67,55,47,41,36,64,41,23,29.81,29.67,20,5,20,0.00
2013-8-22,76,60,49,55,49,42,92,69,37,30.04,29.79,21,4,21,0.08
2013-8-23,81,64,51,53,47,39,91,57,25,29.93,29.65,25,6,25,0.05
2013-8-24,77,62,45,54,44,35,94,60,22,29.88,29.68,26,6,26,0.07
2013-8-25,78,61,46,56,48,39,92,66,27,29.99,29.78,20,4,20,0.03
2013-8-26,82,66,49,56,48,42,91,59,27,29.93,29.73,26,8,26,0.10
2013-8-27,80,63,49,56,50,43,94,66,28,29.98,29.73,25,3,25,0.09
2013-8-28,83,64,49,56,47,36,94,59,27,29.90,29.73,28,4,28,0.02
2013-8-29,84,62,46,53,45,39,83,59,22,30.09,29.79,31,5,31,0.09
2013-8-30,82,62,46,54,47,41,93,64,26,30.08,29.68,30,5,30,0.02
2013-8-31,84,64,50,55,45,37,83,51,22,29.92,29.62,26,5,26,0.01
2013-9-1,74,58,47,56,49,43,90,72,48,30.01,29.82,17,4,17,0.01
2013-9-2,82,64,47,54,46,41,93,60,24,29.95,29.69,24,4,24,0.01
2013-9-3,85,68,52,53,45,38,78,48,20,29.79,29.67,28,6,28,0.00
2013-9-4,85,61,49,58,49,42,88,69,23,30.11,29.77,24,4,24,0.57
2013-9-5,83,64,50,60,50,42,91,66,25,30.05,29.80,26,3,26,0.01
2013-9-6,83,64,53,58,47,38,81,59,22,29.95,29.73,29,5,29,0.17
2013-9-7,81,66,48,51,45,39,88,52,24,29.94,29.66,20,4,20,0.00
2013-9-8,79,61,46,54,46,40,87,60,27,29.85,29.52,20,4,20,0.03
2013-9-9,72,61,54,54,49,43,93,66,42,29.75,29.52,18,5,18,0.25
2013-9-10,58,54,52,54,52,50,94,92,84,29.99,29.68,13,5,13,0.30
2013-9-11,54,54,54,52,52,52,92,92,92,29.98,29.98,10,7,10,0.00
2013-9-12,56,53,52,54,52,50,95,94,94,30.08,30.05,12,3,12,1.31
2013-9-15,52,49,47,49,47,45,93,91,85,30.11,30.04,7,2,7,0.63
2013-9-16,70,54,45,53,46,41,95,78,36,30.10,29.77,22,4,22,0.00
2013-9-17,75,61,43,44,39,26,92,50,17,29.90,29.57,24,7,24,0.00
2013-9-18,67,57,47,49,41,36,90,58,35,29.79,29.49,35,9,35,0.10
2013-9-19,58,50,39,46,40,36,92,70,46,30.15,29.62,14,5,14,0.00
2013-9-20,66,48,32,47,38,29,94,71,31,30.18,29.89,14,3,14,0.01
2013-9-21,73,57,37,42,34,25,91,49,19,29.91,29.55,30,7,30,0.00
2013-9-22,63,50,41,47,40,34,94,72,40,29.66,29.39,29,6,29,0.24
2013-9-23,56,49,44,44,31,25,92,52,34,29.91,29.33,41,16,41,0.13
2013-9-24,68,56,44,34,23,3,57,31,10,30.00,29.57,28,12,28,0.00
2013-9-25,73,63,48,34,21,8,43,20,13,29.59,29.14,28,8,28,0.00
2013-9-26,64,49,38,43,36,26,89,63,41,29.65,29.30,20,4,20,0.00
2013-9-27,47,42,36,44,35,16,92,78,42,29.92,29.53,34,9,34,0.08
2013-9-28,56,49,36,28,24,15,50,37,29,30.04,29.89,34,14,34,0.00
2013-9-29,64,55,45,24,18,12,40,24,19,29.96,29.67,34,16,34,0.00
2013-9-30,74,60,48,31,23,18,44,25,18,29.71,29.45,38,14,38,0.00
2013-10-1,66,54,39,42,36,26,86,53,31,29.89,29.71,16,4,16,0.00
2013-10-2,69,50,32,39,32,20,91,59,17,29.97,29.67,20,5,20,0.00
2013-10-3,63,46,34,41,36,24,93,70,26,29.70,29.54,17,6,17,0.23
2013-10-4,43,34,29,38,23,8,93,67,36,30.22,29.52,34,10,34,0.20
2013-10-5,48,39,30,12,7,-2,47,28,15,30.24,30.08,36,19,36,0.00
2013-10-6,65,50,35,32,22,-1,64,35,17,30.20,29.94,24,9,24,0.00
2013-10-7,71,58,41,26,16,9,42,21,10,30.09,29.60,26,11,26,0.00
2013-10-8,69,57,38,29,18,8,65,25,13,29.69,29.40,33,14,33,0.00
2013-10-9,61,48,36,38,31,23,81,54,30,29.90,29.51,16,5,16,0.00
2013-10-10,52,43,35,43,34,23,90,70,45,29.76,29.34,32,7,32,0.07
2013-10-11,49,42,33,27,25,20,63,51,37,30.00,29.30,46,18,46,0.09
2013-10-12,54,38,28,34,28,19,91,71,28,30.18,29.97,17,4,17,0.00
2013-10-13,60,41,25,41,30,22,91,70,30,30.23,29.68,14,3,14,0.01
2013-10-14,50,40,33,33,28,22,89,65,38,30.08,29.66,25,8,25,0.02
2013-10-15,39,30,26,28,25,22,89,80,60,30.26,30.04,14,4,14,0.00
2013-10-16,47,34,19,24,15,6,88,51,24,30.25,29.93,29,10,29,0.01
2013-10-17,46,36,29,28,21,9,89,57,29,30.04,29.87,31,10,31,0.00
2013-10-18,40,31,19,26,17,8,90,60,32,30.27,29.98,28,9,28,0.14
2013-10-19,53,43,34,20,15,12,44,32,23,30.10,29.75,39,20,39,0.00
2013-10-20,45,37,24,31,23,16,91,61,31,30.13,29.72,35,8,35,0.02
2013-10-21,50,36,18,28,20,15,90,59,30,30.35,30.04,26,8,26,0.04
2013-10-22,60,50,42,26,21,18,42,33,25,30.09,29.91,22,11,22,0.00
2013-10-23,62,48,29,31,23,17,81,41,19,30.18,29.89,21,7,21,0.00
2013-10-24,61,38,22,33,24,19,90,64,22,30.36,30.09,16,3,16,0.00
2013-10-25,63,40,23,33,23,17,86,57,17,30.32,30.02,20,3,20,0.01
2013-10-26,58,38,24,32,25,18,84,62,27,30.46,30.08,12,3,12,0.00
2013-10-27,59,48,34,24,19,12,60,32,20,30.03,29.66,26,10,26,0.00
2013-10-28,35,30,26,29,25,21,91,80,59,30.07,29.78,12,4,12,0.00
2013-10-29,54,34,24,32,26,18,91,76,26,30.08,29.74,20,5,20,0.02
2013-10-30,43,35,29,30,20,12,93,55,35,29.90,29.65,36,15,36,0.04
2013-10-31,40,35,32,22,15,10,60,44,33,29.90,29.75,43,22,43,0.00
2013-11-1,43,37,33,25,17,10,70,46,27,30.21,29.85,26,11,26,0.00
2013-11-2,57,48,37,14,5,-9,38,19,7,30.14,29.51,38,19,38,0.00
2013-11-3,54,47,29,24,12,-10,69,28,7,29.72,29.35,41,17,41,0.00
2013-11-4,35,29,23,19,12,4,70,50,34,30.04,29.65,36,11,36,0.00
2013-11-5,33,26,20,20,3,-9,83,40,20,30.25,29.94,39,13,39,0.00
2013-11-6,38,32,23,16,10,-2,54,40,31,30.33,30.16,45,21,45,0.00
2013-11-7,53,43,33,18,16,14,49,35,23,30.37,29.81,28,14,28,0.00
2013-11-8,57,48,38,18,13,8,39,25,19,29.95,29.56,55,22,55,0.00
2013-11-9,56,43,29,24,18,14,73,39,22,30.21,29.86,24,7,24,0.00
2013-11-10,60,45,29,22,16,12,74,33,17,30.22,29.95,22,10,22,0.00
2013-11-11,60,43,28,27,19,11,87,46,15,30.47,30.00,31,10,31,0.00
2013-11-12,56,37,22,25,20,3,88,57,15,30.77,30.15,18,4,18,0.00
2013-11-13,57,49,42,18,8,1,35,20,13,30.33,29.83,27,12,27,0.00
2013-11-14,51,43,32,23,14,6,56,32,18,29.97,29.61,24,10,24,0.00
2013-11-15,50,40,32,29,15,2,84,40,19,29.64,29.33,36,14,36,0.00
2013-11-16,42,34,26,27,18,12,86,55,32,29.53,29.24,47,19,47,0.00
2013-11-17,41,33,26,22,14,10,83,46,29,30.11,29.48,51,22,51,0.00
2013-11-18,55,38,22,17,11,5,58,36,14,30.22,29.91,39,13,39,0.00
2013-11-19,50,42,25,27,16,0,69,36,16,30.04,29.57,30,13,30,0.00
2013-11-20,49,40,32,27,20,14,77,45,28,29.84,29.66,37,12,37,0.00
2013-11-21,32,13,6,26,8,1,86,79,70,30.86,29.84,13,6,13,0.00
2013-11-22,30,17,7,26,13,2,87,81,74,30.91,30.65,8,1,8,0.10
2013-11-23,31,20,11,23,15,7,86,79,65,30.76,30.48,7,1,7,0.10
2013-11-24,40,26,11,32,18,1,90,74,23,30.50,29.96,32,3,32,0.06
2013-11-25,40,30,17,20,17,11,83,58,35,30.41,29.96,22,4,22,0.00
2013-11-26,46,26,14,19,13,10,84,61,26,30.57,30.28,26,4,26,0.00
2013-11-27,51,40,24,19,14,9,70,36,22,30.25,29.92,27,12,27,0.00
2013-11-28,50,29,17,25,18,12,82,66,27,30.40,30.08,13,2,13,0.00
2013-11-29,48,40,24,19,15,11,77,38,26,30.22,30.01,34,15,34,0.00
2013-11-30,46,39,34,15,12,9,45,34,24,30.16,30.02,29,15,29,0.00
2013-12-1,45,37,28,24,17,11,58,43,28,30.12,29.72,47,20,47,0.00
2013-12-2,41,38,34,24,21,18,64,51,44,29.82,29.52,51,31,51,0.00
2013-12-3,38,28,5,28,16,0,83,64,44,29.76,29.39,33,8,33,0.00
2013-12-4,6,0,-10,0,-6,-18,78,75,68,30.42,29.76,14,4,14,0.00
2013-12-5,11,-4,-13,4,-11,-20,75,71,67,30.56,30.29,17,5,17,0.09
2013-12-6,8,-4,-13,0,-11,-21,74,71,68,30.69,30.43,17,4,17,0.00
2013-12-7,18,3,-8,8,-4,-14,75,72,66,30.49,30.02,16,4,16,0.00
2013-12-8,19,8,-8,3,-5,-14,79,57,32,30.25,29.87,33,7,33,0.00
2013-12-9,17,7,-8,-2,-11,-17,75,47,27,30.50,30.25,47,23,47,0.01
2013-12-10,25,19,14,5,0,-4,48,43,38,30.37,30.07,54,33,54,0.00
2013-12-13,42,33,26,11,7,5,45,34,22,30.09,29.71,29,13,29,0.00
2013-12-14,37,29,18,12,6,2,56,38,25,30.30,30.09,43,18,43,0.00
2013-12-15,44,36,29,14,12,7,50,36,25,30.23,30.04,43,26,43,0.00
2013-12-16,47,40,36,14,10,5,38,29,20,30.19,30.02,45,26,45,0.00
2013-12-17,51,44,39,11,8,4,28,23,18,30.25,29.94,37,16,37,0.00
2013-12-18,53,46,42,13,7,4,28,20,15,29.94,29.56,33,17,33,0.00
2013-12-19,49,38,15,24,16,10,86,46,21,29.74,29.33,39,13,39,0.00
2013-12-20,38,24,11,25,10,-2,88,58,30,29.90,29.56,28,8,28,0.00
2013-12-21,29,24,15,18,10,-2,85,60,29,29.97,29.51,28,12,28,0.00
2013-12-22,28,20,6,11,6,1,82,58,34,30.29,29.97,29,9,29,0.00
2013-12-23,36,26,11,18,12,6,83,57,34,30.38,30.04,45,18,45,0.00
2013-12-24,37,29,18,26,13,-2,85,51,34,30.37,29.98,45,18,45,0.00
2013-12-25,38,29,21,4,1,-4,45,30,22,30.49,30.23,28,15,28,0.00
2013-12-26,43,36,27,12,5,-5,45,27,19,30.35,30.17,33,15,33,0.00
2013-12-27,52,38,23,18,15,10,72,42,24,30.37,30.02,25,6,25,0.00
2013-12-28,45,34,18,20,16,7,85,52,24,30.17,29.75,21,10,21,0.00
2013-12-29,32,22,9,21,7,-3,85,58,26,30.43,29.99,38,10,38,0.07
2013-12-30,36,30,25,12,8,4,52,39,29,30.23,29.96,36,16,36,0.00
2013-12-31,41,36,32,20,16,8,58,45,34,30.08,29.84,46,20,46,0.00
2014-1-1,35,27,16,25,13,5,88,57,33,30.38,29.84,30,9,30,0.00
2014-1-2,44,35,18,13,6,-3,70,30,19,30.34,29.89,35,18,35,0.00